Hourly Data Report for July 14, 2021

CAMBRIDGE BAY A
NUNAVUT
Current Station Operator: NAVCAN

69°06'29.000" N
105°08'14.000" W
31.10 m
2400601
71925
YCB

Download Data

Hourly Data (July 2021)
Hourly Data Report for July 14, 2021
TIME
LST
Temp Definition
°C
Dew Point Definition
°C
Rel Hum Definition
%
Precip. Amount Definition
mm

Wind Dir Definition
10's deg

Wind Spd Definition
km/h
Visibility Definition
km
Stn Press Definition
kPa
Hmdx Definition


Wind Chill Definition


Weather Definition


00:00 3.6 3.1 96   26 16 24.1 99.60     LegendNANA
01:00 4.0 3.4 96   25 10 24.1 99.58     LegendNANA
02:00 2.8 2.3 96   24 12 0.4 99.60     Fog
03:00 3.6 3.1 96   26 14 19.3 99.59     LegendNANA
04:00 3.0 2.4 96   26 16 0.8 99.60     Fog
05:00 2.5 2.0 96   25 17 0.8 99.60     Fog
06:00 3.3 2.8 96   26 14 3.2 99.62     Fog
07:00 3.8 3.2 96   26 18 24.1 99.63     LegendNANA
08:00 4.7 3.4 91   30 28 24.1 99.63     Mostly Cloudy
09:00 5.5 1.9 77   30 27 24.1 99.63     LegendNANA
10:00 4.4 2.1 85   27 20 24.1 99.62     LegendNANA
11:00 4.8 2.0 82   26 19 24.1 99.63     Mostly Cloudy
12:00 4.3 1.2 80   26 21 24.1 99.63     LegendNANA
13:00 3.7 1.6 86   27 22 24.1 99.64     LegendNANA
14:00 5.5 2.0 78   27 21 24.1 99.63     Mostly Cloudy
15:00 5.0 1.1 76   25 21 24.1 99.64     LegendNANA
16:00 4.9 1.3 77   27 21 24.1 99.65     LegendNANA
17:00 4.6 1.5 80   27 21 24.1 99.64     Cloudy
18:00 3.5 1.0 84   25 17 24.1 99.63     LegendNANA
19:00 5.4 2.8 83   29 15 24.1 99.61     LegendNANA
20:00 6.0 2.6 79   33 12 24.1 99.64     Rain
21:00 5.8 0.9 71   31 17 24.1 99.70     LegendNANA
22:00 4.8 -0.2 70   32 17 24.1 99.74     LegendNANA
23:00 3.8 -0.9 71   31 19 24.1 99.75     Mostly Cloudy

Notes on Data Quality.

Legend

  • E = Estimated
  • M = Missing
  • NA = Not Available*
  • [empty] = Indicates an unobserved value
Date modified: